Terminal Aerodrome Forecast
Issued by NWS

Home | Current Version | Previous Version | Text Only | Print | Product List | Glossary On
Versions: 1 2 3 4 5 6 7 8 9 10 11 12 13 14 15 16 17 18 19
000
FTUS41 KCAR 191130 CCA
TAFBHB
TAF COR
KBHB 191130Z 1912/2012 31008KT P6SM VCSH BKN030
     FM191400 32009G17KT P6SM SCT035
     FM192200 31006KT P6SM FEW045 BKN250
      AMD LTD TO CLD VIS AND WIND=

USA.gov is the U.S. government's official web portal to all federal, state and local government web resources and services.